Jackson, Tennessee, United States (38301)
Lat: 35.61N, Lon: 88.81W
Wx Zone: TNZ052
Local Info
Past Weather Observations for Monday, June 29, 2015

NOTE: This archive is for the closest National Weather Service station to Jackson. Information may differ from the station used for current weather conditions.

Click here for Long-term Archive

Time Weather Temperature Dewpoint Humidity Pressure Winds Precip Visibility
23:53
Clear
73°F / 23°C 70°F / 21°C 89% 29.92 in
(1013 mb)
SW 8.1 mph
(SW 13 kph)
- 10SM
22:53
Clear
75°F / 24°C 70°F / 21°C 83% 29.92 in
(1013 mb)
SW 10.4 mph
(SW 17 kph)
- 10SM
21:53
Partly Cloudy
75°F / 24°C 70°F / 21°C 83% 29.92 in
(1013 mb)
SW 8.1 mph
(SW 13 kph)
- 10SM
20:53
Partly Cloudy
77°F / 25°C 72°F / 22°C 83% 29.89 in
(1012 mb)
SW 5.8 mph
(SW 9 kph)
- 10SM
19:53
Partly Cloudy
79°F / 26°C 73°F / 23°C 84% 29.89 in
(1012 mb)
SSE 4.6 mph
(SSE 7 kph)
- 10SM
18:53
Clear
81°F / 27°C 72°F / 22°C 74% 29.89 in
(1012 mb)
Calm - 10SM
17:53
Clear
84°F / 29°C 72°F / 22°C 66% 29.86 in
(1011 mb)
SSW 8.1 mph
(SSW 13 kph)
- 10SM
16:53
Clear
88°F / 31°C 70°F / 21°C 55% 29.86 in
(1011 mb)
SSW 11.5 mph
(SSW 19 kph)
- 10SM
15:53
Mostly Cloudy
86°F / 30°C 70°F / 21°C 59% 29.89 in
(1012 mb)
SSW 10.4 mph
(SSW 17 kph)
- 10SM
14:53
Partly Cloudy
88°F / 31°C 70°F / 21°C 55% 29.89 in
(1012 mb)
SSW 12.7 mph
(SSW 20 kph)
- 10SM
13:53
Partly Cloudy
88°F / 31°C 70°F / 21°C 55% 29.89 in
(1012 mb)
SSW 10.4 mph
(SSW 17 kph)
- 10SM
12:53
Overcast
84°F / 29°C 70°F / 21°C 62% 29.92 in
(1013 mb)
SSW 6.9 mph
(SSW 11 kph)
- 10SM
11:53
Partly Cloudy
84°F / 29°C 68°F / 20°C 58% 29.92 in
(1013 mb)
SSW 13.8 mph
(SSW 22 kph)
- 10SM
10:53
Clear
84°F / 29°C 70°F / 21°C 62% 29.92 in
(1013 mb)
SW 16.1 mph
(SW 26 kph)
- 10SM
09:53
Clear
81°F / 27°C 70°F / 21°C 70% 29.92 in
(1013 mb)
SW 15 mph
(SW 24 kph)
- 10SM
08:53
Partly Cloudy
75°F / 24°C 68°F / 20°C 78% 29.95 in
(1014 mb)
SW 16.1 mph
(SW 26 kph)
- 10SM
07:53
Overcast
72°F / 22°C 66°F / 19°C 83% 29.95 in
(1014 mb)
SSE 13.8 mph
(SSE 22 kph)
- 10SM
06:53
Overcast
70°F / 21°C 66°F / 19°C 88% 29.95 in
(1014 mb)
SW 15 mph
(SW 24 kph)
0.10 in
(2.54 mm)
10SM
06:07
Overcast
Light Rain
70°F / 21°C 66°F / 19°C 88% 29.95 in
(1014 mb)
SW 12.7 mph
(SW 20 kph)
0.06 in
(1.52 mm)
9SM
05:53
Overcast
Rain
70°F / 21°C 66°F / 19°C 88% 29.95 in
(1014 mb)
SW 15 mph
(SW 24 kph)
0.05 in
(1.27 mm)
2 1/2SM
04:53
Partly Cloudy
70°F / 21°C 64°F / 18°C 83% 29.92 in
(1013 mb)
SW 11.5 mph
(SW 19 kph)
0.00 in
(0.00 mm)
10SM
03:53
Overcast
Light Rain
70°F / 21°C 66°F / 19°C 88% 29.92 in
(1013 mb)
S 10.4 mph
(S 17 kph)
0.00 in
(0.00 mm)
10SM
02:53
Overcast
Light Rain
70°F / 21°C 66°F / 19°C 88% 29.92 in
(1013 mb)
SW 10.4 mph
(SW 17 kph)
0.11 in
(2.79 mm)
5SM
01:53
Overcast
Light Rain
72°F / 22°C 66°F / 19°C 83% 29.92 in
(1013 mb)
SW 12.7 mph
(SW 20 kph)
0.01 in
(0.25 mm)
10SM
00:53
Partly Cloudy
72°F / 22°C 64°F / 18°C 78% 29.92 in
(1013 mb)
SW 5.8 mph
(SW 9 kph)
- 10SM
Time Weather Temperature Dewpoint Humidity Pressure Winds Precip Visibility


Weather for websites

WeatherForYou.com, LLC is not responsible for any damages or problems caused by this service. Current weather conditions are obtained from the closest station including government and personal stations which may have varying degrees of accuracy. Weather forecasts are derived from the NOAA NDFD. Like all things, this site belongs to Jesus Christ... He just trusts us to maintain it. If you have any questions or comments email webmaster@weatherforyou.com

Copyright © 2015, WeatherForYou.com LLC. All rights reserved.